SCP
1 1 2 2 2 2 2 2 2 2 2 2 2 2 2 2 3 3 3 3 3 3 3 2 2 2 2 2 2 2 2 2 2 3 4 4 3 2 2 2 2 2 2
1 1 2 2 2 2 2 2 2 2 2 2 2 2 2 2 2 2 2 2 2 2 2 2 2 2 2 2 2 2 2 2 2 3 4 4 3 2 2 2 2 2 2
1 1 2 2 2 2 2 2 2 2 2 2 1 1 1 2 2 2 2 2 2 2 2 2 2 2 2 2 3 3 3 3 3 4 4 3 3 2 2 2 2 2 2
1 1 2 2 2 2 2 2 2 2 2 2 2 2 1 1 1 1 1 1 1 2 2 2 2 2 2 2 2 3 3 3 3 4 3 3 2 2 2 2 2 3 3
1 1 1 2 2 2 2 1 1 1 2 2 2 2 2 1 1 1 1 1 1 1 1 1 1 1 1 2 2 2 3 3 3 3 3 2 2 2 2 2 2 3 2
1 1 1 2 2 2 2 1 1 1 2 2 2 2 2 1 1 1 1 1 1 1 1 1 1 1 1 1 2 2 2 2 2 2 2 1 2 2 2 2 2 2 2
1 1 2 2 2 2 1 1 1 1 1 1 1 1 1 2 2 1 1 1 1 1 1 1 1 1 1 1 1 2 2 1 1 1 1 1 2 2 2 2 2 2 2
1 1 2 2 2 2 1 1 1 1 1 1 1 1 2 2 2 1 1 1 1 1 1 1 1 1 1 1 1 1 1 1 1 1 1 1 2 2 2 2 2 2 2
1 1 2 2 2 2 2 1 1 1 1 1 1 2 2 2 2 1 1 1 1 1 1 1 1 1 1 1 1 1 1 1 1 1 1 1 2 2 2 1 2 2 2
1 1 1 2 2 2 2 1 1 1 1 1 1 1 1 1 1 1 1 1 1 1 1 1 1 1 1 1 1 1 1 1 1 1 1 1 2 2 1 1 1 1 2
1 1 1 1 2 2 1 1 1 1 1 1 1 1 1 1 1 1 1 1 1 1 1 1 1 1 1 1 1 1 1 1 1 1 1 1 1 1 1 1 1 1 1
1 1 1 1 1 1 1 1 1 1 1 0 0 0 0 0 0 1 1 1 1 1 1 1 1 1 1 1 1 1 1 1 1 1 1 1 2 1 1 1 1 1 1
1 1 1 1 1 1 1 1 1 0 0 0 0 0 0 0 0 0 0 1 1 1 1 1 1 1 0 1 1 1 1 0 1 1 1 2 2 2 2 2 2 2 2
1 1 1 1 1 1 1 0 0 0 0 0 0 0 0 0 0 0 0 0 0 0 1 1 1 1 1 1 1 1 1 1 1 1 1 2 2 2 3 3 3 3 3
1 1 1 1 1 1 0 0 0 0 0 0 0 0 0 0 0 0 0 0 0 0 1 1 1 1 1 1 1 1 1 1 1 1 1 2 3 3 3 3 3 3 3
1 1 1 1 1 1 0 0 0 0 0 0 0 0 0 0 0 0 0 0 0 0 0 1 1 1 1 1 1 1 1 1 1 1 1 2 3 3 3 4 4 4 4
1 1 1 1 1 0 0 0 0 0 0 0 0 0 0 0 0 0 0 0 0 0 0 0 0 0 0 1 1 1 1 1 1 1 1 2 3 4 4 4 5 5 4
1 1 1 1 1 0 0 0 0 0 0 0 0 0 0 0 1 0 0 0 0 0 0 0 0 0 0 0 0 1 1 1 1 1 1 2 3 4 4 5 5 5 5
1 1 1 1 1 0 0 0 0 0 0 0 0 0 0 0 1 0 0 0 0 0 0 0 0 0 0 0 0 1 1 1 1 1 1 2 3 4 4 5 5 5 5
1 1 1 1 1 0 0 0 0 0 0 0 0 0 1 1 0 0 0 0 0 0 0 0 1 1 1 0 0 0 1 1 1 1 1 2 3 3 4 4 4 4 4
1 1 1 1 1 0 0 0 1 1 1 1 1 1 1 1 1 1 0 0 1 1 1 1 1 1 1 1 1 1 1 1 1 1 2 2 2 3 3 3 3 3 3
0 1 1 1 0 0 1 1 1 1 1 1 1 1 1 1 1 1 1 1 1 1 1 1 1 1 1 1 1 1 1 1 1 1 1 2 2 2 2 2 2 2 2
0 0 0 0 0 1 1 1 1 1 1 1 1 1 1 1 1 1 1 1 1 1 1 1 1 1 1 1 1 2 2 2 1 1 1 1 1 2 2 1 1 1 1
0 1 1 0 1 1 1 1 1 1 1 1 1 1 1 1 1 1 1 1 1 1 1 1 1 1 1 2 2 2 2 3 3 2 2 1 1 1 2 2 2 2 2
1 1 1 1 1 1 2 2 2 2 2 2 1 1 1 1 1 1 1 1 1 1 1 1 1 1 2 2 2 3 3 4 4 4 3 2 2 1 1 2 2 2 3
1 1 1 1 1 1 2 2 2 2 2 2 2 1 1 1 1 1 1 1 1 1 1 1 1 1 2 2 3 3 4 5 5 6 5 4 2 1 1 2 2 3 3
Wind_Speed
2 3 2 1 3 4 5 6 7 7 8 8 8 8 7 7 9 10 11 11 12 12 12 12 11 11 12 12 13 13 13 13 14 13 12 12 11 12 12 12 12 9 12
1 2 1 2 4 5 6 7 7 8 8 8 8 8 7 9 10 11 11 11 12 11 11 11 10 10 11 12 13 13 13 13 13 13 12 10 11 12 12 12 11 7 12
1 1 0 3 5 6 7 7 8 8 8 8 8 8 9 10 11 11 11 11 11 11 11 10 10 10 11 13 14 13 13 12 12 12 10 6 8 11 11 11 11 11 11
1 1 1 5 6 7 7 7 8 9 9 9 9 9 10 11 11 11 11 11 11 11 10 10 10 11 12 13 13 12 12 12 11 10 6 5 5 9 10 10 10 10 11
2 2 1 5 6 7 7 7 8 8 9 9 9 9 10 10 10 10 10 10 10 10 9 10 10 11 11 11 11 11 11 10 10 8 5 4 4 8 9 9 9 9 9
2 2 1 5 6 6 7 7 7 8 8 8 9 9 9 9 10 9 9 9 9 9 9 9 10 10 10 10 10 9 9 9 8 5 5 4 4 7 9 9 8 8 8
2 2 2 4 5 6 7 7 7 8 8 8 9 9 8 8 9 8 8 8 8 8 8 8 9 8 8 8 8 8 8 8 5 4 4 3 4 6 7 8 7 7 7
2 2 3 4 6 6 7 7 7 7 8 8 8 8 8 8 8 7 7 7 7 7 7 8 8 7 7 7 7 7 7 7 5 4 3 3 5 6 7 7 7 7 7
3 4 4 4 4 5 6 7 7 8 8 8 8 8 8 8 7 7 6 6 6 7 7 8 7 7 7 6 6 5 6 6 4 3 4 3 5 6 6 6 6 6 7
4 4 4 4 4 4 4 6 7 8 8 8 8 8 7 7 7 7 6 6 6 6 7 7 7 6 6 5 5 5 5 4 3 3 2 3 5 5 5 5 5 6 6
3 3 3 3 4 4 4 5 6 7 8 7 6 8 7 4 4 4 5 6 6 6 7 7 7 6 5 4 4 4 3 2 2 2 2 4 5 5 5 4 4 5 5
1 2 2 3 3 3 3 4 4 4 4 5 4 5 4 4 4 5 6 7 7 7 7 7 6 5 4 2 3 3 1 2 2 1 2 5 5 5 4 4 4 4 5
1 1 2 2 2 3 2 3 2 3 3 4 4 4 4 4 3 4 3 4 5 5 4 5 4 3 2 2 2 1 1 1 1 1 2 5 5 5 5 4 4 4 4
2 1 1 2 2 2 2 2 2 2 2 2 3 3 3 2 3 3 2 2 2 2 2 2 2 2 2 2 1 1 1 1 1 1 2 5 5 5 5 5 5 5 5
2 2 2 2 2 2 2 2 2 2 2 2 2 2 3 2 2 2 2 2 2 2 2 2 2 2 2 1 1 1 1 1 1 1 1 4 4 4 4 5 5 6 6
2 2 2 2 2 2 2 2 2 2 1 2 2 2 2 2 2 2 2 2 2 1 1 1 1 1 1 1 1 0 0 1 1 1 1 2 3 4 5 5 5 5 6
3 3 3 3 2 2 2 2 2 1 2 1 1 1 1 1 1 1 2 2 1 1 1 1 2 2 1 1 1 1 0 0 1 1 1 1 2 3 4 4 5 5 5
3 3 2 3 3 2 1 1 1 1 1 1 1 1 1 1 1 1 1 1 1 1 1 1 1 2 1 1 1 1 1 0 1 1 1 1 1 2 3 4 5 5 5
4 3 3 2 3 2 2 2 1 1 1 1 1 1 1 1 1 1 1 1 1 1 1 1 1 1 1 1 1 1 1 1 1 1 1 1 1 2 2 3 4 4 4
4 3 3 2 2 2 2 2 2 2 1 1 1 1 1 1 1 1 1 1 1 1 1 1 1 1 1 1 1 2 2 1 1 1 1 1 1 2 2 2 2 3 5
4 4 3 3 2 2 2 1 1 0 1 1 1 1 1 1 1 2 1 1 1 1 0 0 1 1 1 1 1 2 2 2 1 1 1 1 1 2 1 2 2 2 2
5 5 4 4 3 2 2 1 1 1 0 0 1 1 1 1 1 1 1 1 1 1 1 1 0 1 1 1 1 1 2 3 2 2 1 1 1 1 1 1 2 2 2
6 6 6 5 4 3 3 2 2 2 2 1 1 1 1 1 1 0 1 1 1 1 0 1 0 1 0 1 1 1 1 1 2 2 2 1 2 1 2 2 2 2 2
7 6 5 5 4 4 3 3 3 2 1 1 1 1 1 1 1 0 1 1 1 1 0 1 0 0 1 0 0 0 1 2 1 1 2 1 2 2 2 2 2 2 1
7 6 5 5 4 4 4 4 3 2 2 1 0 0 1 1 1 0 1 1 1 1 1 0 0 0 0 1 1 0 0 0 1 1 2 3 2 1 1 2 1 1 1
5 5 5 5 5 4 5 4 4 4 3 2 1 1 1 1 1 1 0 1 1 1 1 1 0 0 1 1 1 1 1 1 1 1 2 2 3 2 2 1 1 1 1
Wind_Direction
296 294 287 40 77 80 85 88 91 95 99 104 108 111 116 125 131 131 129 127 124 124 126 127 130 135 138 139 137 136 134 133 131 131 130 130 136 139 142 142 138 137 137
278 291 249 81 88 91 90 89 88 92 96 100 105 108 112 121 127 126 125 124 122 122 120 121 125 132 138 139 136 134 134 133 133 133 131 132 138 141 144 143 140 140 140
26 334 31 104 96 96 94 92 92 95 97 97 100 101 103 114 119 119 121 120 119 121 119 119 119 123 129 134 133 131 131 132 133 132 128 125 137 142 143 144 143 142 141
58 21 45 103 100 98 96 92 94 97 98 96 96 99 102 108 112 115 117 118 118 119 118 119 118 121 124 127 130 130 131 131 133 131 120 122 137 145 145 145 146 148 145
48 23 26 101 98 101 102 95 94 97 95 95 95 99 102 105 109 111 115 119 120 121 120 120 122 120 123 126 129 131 134 137 137 127 116 113 128 147 146 144 148 150 148
44 15 28 96 98 97 98 94 93 93 94 94 97 98 103 106 108 109 112 118 121 124 124 121 119 119 122 127 131 134 138 139 130 118 114 115 123 147 150 151 154 153 152
51 19 29 85 94 96 96 95 94 92 92 93 98 101 104 108 110 109 108 108 115 122 125 124 121 124 129 132 135 138 140 138 124 123 127 133 139 147 154 156 155 155 156
64 38 34 74 85 90 90 89 92 93 90 91 95 97 101 104 109 109 108 107 115 118 122 125 122 123 129 133 137 139 142 137 133 135 136 146 151 155 162 161 161 163 165
51 43 31 28 55 75 82 82 88 92 90 89 89 91 95 99 102 103 100 102 114 116 117 122 122 120 120 129 135 135 138 138 131 135 147 144 152 159 162 167 170 169 172
45 41 35 29 34 42 51 70 79 82 81 80 80 84 87 88 91 92 83 93 107 111 112 114 110 114 118 123 133 134 128 124 125 139 145 155 163 164 167 177 179 180 180
46 35 38 42 43 49 56 65 66 72 69 68 71 75 67 51 57 71 74 85 93 95 96 98 99 100 104 104 112 118 113 113 134 146 158 167 172 176 182 186 190 192 195
60 37 42 58 61 58 64 59 49 54 51 50 50 53 52 53 54 60 59 69 74 77 81 84 80 80 85 85 87 86 92 117 141 163 178 184 187 192 195 195 201 206 209
117 72 64 69 65 67 64 64 53 53 52 48 49 50 50 49 48 47 45 45 49 57 57 61 57 61 71 90 94 95 115 142 157 176 188 192 198 206 209 212 213 218 223
112 106 82 80 80 72 75 68 67 65 61 53 48 58 63 55 48 45 45 37 40 44 48 48 58 57 61 75 107 128 152 173 174 182 198 202 208 212 215 218 224 229 232
141 144 120 104 98 88 83 72 75 68 63 58 55 59 76 74 58 50 44 39 35 44 56 53 53 50 45 44 82 127 183 194 181 179 207 214 212 212 221 229 237 242 240
163 163 137 122 118 103 96 88 75 74 69 62 56 51 71 79 70 60 47 37 36 43 54 65 54 46 27 25 22 56 184 174 177 190 212 241 236 229 235 239 241 247 246
172 157 140 135 108 101 102 97 83 76 76 67 49 49 72 86 86 78 64 47 36 41 53 65 51 51 40 34 12 352 337 204 187 212 228 242 260 253 246 248 252 252 253
160 151 148 136 111 105 96 88 77 75 76 66 59 61 74 94 107 94 76 51 48 56 60 73 61 62 45 40 13 344 349 325 241 233 236 241 257 266 266 262 263 262 261
168 156 145 127 127 125 98 76 70 64 62 52 55 57 59 79 107 113 99 55 54 65 56 73 77 96 70 25 15 6 351 333 295 278 266 262 254 257 265 276 278 276 270
161 152 148 135 127 114 89 66 47 34 20 30 38 42 66 84 109 116 94 46 53 65 42 51 70 51 51 18 30 18 358 349 348 333 283 286 274 263 266 268 279 289 283
158 156 162 158 153 123 99 92 80 355 333 2 342 0 46 61 85 109 95 67 69 75 44 50 87 53 21 15 51 16 6 12 14 350 321 312 299 281 270 261 261 269 286
176 177 178 184 174 167 157 141 143 150 191 248 342 8 25 39 60 117 114 99 77 72 37 29 76 88 8 38 93 72 355 353 3 358 357 345 326 317 307 289 269 255 268
186 188 192 192 186 184 164 117 85 62 38 29 4 350 341 343 15 69 120 131 104 109 75 313 305 144 192 10 81 140 150 259 318 337 347 348 334 327 313 306 289 273 267
197 187 186 184 183 182 166 155 153 157 182 221 243 292 324 354 14 106 135 144 144 133 172 276 20 198 166 270 2 70 178 181 192 306 325 340 335 329 321 315 315 310 298
190 181 182 176 183 181 176 175 171 182 197 190 174 311 318 332 336 355 166 153 158 177 208 267 42 89 163 202 205 200 159 88 185 213 289 316 328 321 321 308 306 311 305
179 177 175 178 190 186 182 183 186 193 187 175 200 235 285 301 310 311 211 172 191 210 231 245 217 189 217 212 209 193 185 184 198 197 244 285 300 304 316 316 296 292 287